Weather History for KEVV - March, 2013

Change the Weather History Date:

Tuesday, March 26, 2013

  Actual Average Record
Temperature  
Mean Temperature 36 °F 49 °F  
Max Temperature 43 °F 61 °F 80 °F (1991)
Min Temperature 28 °F 38 °F 10 °F (1955)
Degree Days  
Heating Degree Days 29 16  
Month to date heating degree days 682 516  
Since 1 July heating degree days 4045 4090  
Cooling Degree Days 0 0  
Month to date cooling degree days 0 0  
Year to date cooling degree days 0 0  
Moisture  
Dew Point 26 °F    
Average Humidity 68    
Maximum Humidity 85    
Minimum Humidity 51    
Precipitation  
Precipitation T in 0.15 in 2.94 in (1949)
Month to date precipitation 3.85 3.51  
Year to date precipitation 13.38 9.78  
Snow  
Snow T in 0.00 in 0.30 in (1978)
Month to date snowfall T 0.9  
Since 1 July snowfall 12.3 11.6  
Snow Depth 0.00 in    
Sea Level Pressure  
Sea Level Pressure 30.25 in    
Wind  
Wind Speed 9 mph (WNW)    
Max Wind Speed 16 mph    
Max Gust Speed 21 mph    
Visibility 9 miles    
Events Snow    
T = Trace of Precipitation, MM = Missing Value Source: NWS Daily Summary

Daily Weather History Graph

Daily Weather History Graph

Search for Another Location

Airport or City:

Trip Planner

Search our weather history database for the weather conditions in past years. The results will help you decide how hot, cold, wet, or windy it might be!

Date:

Astronomy

Mar. 26, 2013 Rise Set
Actual Time 6:43 AM CDT 7:07 PM CDT
Civil Twilight 6:17 AM CDT 7:34 PM CDT
Nautical Twilight 5:46 AM CDT 8:05 PM CDT
Astronomical Twilight 5:15 AM CDT 8:36 PM CDT
Moon 6:44 PM CDT (3/26) 6:00 AM CDT (3/26)
Length of Visible Light 13h 16m
Length of Day
12h 23m
Waxing Gibbous, 99% of the Moon is Illuminated
Mar 26
Waxing Gibbous
Mar 27
Full
Apr 2
Last Quarter
Apr 10
New
Apr 18
First Quarter

Hourly Weather History & Observations

Time (CDT) Temp. Windchill Dew Point Humidity Pressure Visibility Wind Dir Wind Speed Gust Speed Precip Events Conditions
12:54 AM 32.0 °F 23.0 °F 28.0 °F 85% 30.14 in 9.0 mi NW 11.5 mph - 0.00 in   Overcast
1:54 AM 32.0 °F 23.6 °F 28.0 °F 85% 30.15 in 5.0 mi WNW 10.4 mph - 0.00 in Snow Light Snow
2:17 AM 32.0 °F 23.6 °F 28.4 °F 87% 30.14 in 5.0 mi WNW 10.4 mph - 0.00 in Snow Light Snow
2:54 AM 32.0 °F 24.2 °F 28.0 °F 85% 30.15 in 5.0 mi WNW 9.2 mph - 0.00 in Snow Light Snow
3:54 AM 32.0 °F 24.2 °F 27.0 °F 82% 30.15 in 10.0 mi WNW 9.2 mph - 0.00 in   Overcast
4:54 AM 32.0 °F 24.2 °F 27.0 °F 82% 30.16 in 10.0 mi NW 9.2 mph - N/A   Overcast
5:54 AM 32.0 °F 24.8 °F 27.0 °F 82% 30.18 in 10.0 mi WNW 8.1 mph - N/A   Overcast
6:54 AM 32.0 °F 25.6 °F 27.0 °F 82% 30.20 in 10.0 mi WNW 6.9 mph - N/A   Overcast
7:54 AM 33.1 °F 26.1 °F 27.0 °F 78% 30.23 in 10.0 mi WNW 8.1 mph - N/A   Overcast
8:54 AM 33.1 °F 25.5 °F 27.0 °F 78% 30.25 in 10.0 mi NW 9.2 mph - N/A   Overcast
9:54 AM 35.1 °F 26.9 °F 28.0 °F 76% 30.26 in 10.0 mi WNW 11.5 mph - N/A   Overcast
10:54 AM 39.0 °F 32.3 °F 30.0 °F 70% 30.27 in 10.0 mi WNW 10.4 mph - N/A   Overcast
11:54 AM 39.0 °F 31.4 °F 28.0 °F 65% 30.28 in 10.0 mi WNW 12.7 mph 18.4 mph N/A   Mostly Cloudy
12:54 PM 39.0 °F 32.8 °F 25.0 °F 57% 30.28 in 10.0 mi NNW 9.2 mph - N/A   Overcast
1:54 PM 39.9 °F 33.9 °F 28.0 °F 63% 30.28 in 10.0 mi NW 9.2 mph - N/A   Overcast
2:54 PM 41.0 °F 34.7 °F 27.0 °F 57% 30.28 in 10.0 mi WNW 10.4 mph - N/A   Overcast
3:54 PM 41.0 °F 33.5 °F 25.0 °F 53% 30.28 in 10.0 mi WNW 13.8 mph - N/A   Overcast
4:54 PM 41.0 °F 35.2 °F 25.0 °F 53% 30.29 in 10.0 mi NW 9.2 mph - N/A   Overcast
5:54 PM 39.9 °F 32.1 °F 24.1 °F 53% 30.30 in 10.0 mi WNW 13.8 mph 19.6 mph N/A   Overcast
6:54 PM 39.0 °F 33.4 °F 24.1 °F 55% 30.32 in 10.0 mi WNW 8.1 mph - N/A   Mostly Cloudy
7:54 PM 37.0 °F 30.4 °F 21.9 °F 54% 30.33 in 10.0 mi WNW 9.2 mph - N/A   Mostly Cloudy
8:54 PM 36.0 °F 31.1 °F 21.9 °F 57% 30.35 in 10.0 mi WNW 5.8 mph - N/A   Mostly Cloudy
9:54 PM 34.0 °F 28.0 °F 21.9 °F 61% 30.36 in 10.0 mi WNW 6.9 mph - N/A   Clear
10:54 PM 32.0 °F 28.7 °F 21.9 °F 66% 30.36 in 10.0 mi WNW 3.5 mph - N/A   Clear
11:54 PM 32.0 °F 28.7 °F 21.0 °F 64% 30.36 in 10.0 mi WNW 3.5 mph - N/A   Partly Cloudy